Regional Weather Roundup
Issued by NWS Charleston, SC

Home | Current Version | Previous Version | Text Only | Print | Product List | Glossary On
Versions: 1 2 3 4 5 6 7 8 9 10 11 12 13 14 15 16 17 18 19 20 21 22 23 24 25 26 27 28 29 30 31 32 33 34 35 36 37 38 39 40 41 42 43 44 45 46 47 48 49 50
000
ASUS42 KCHS 302327
RWRCHS

REGIONAL WEATHER ROUNDUP
NATIONAL WEATHER SERVICE CHARLESTON SC
700 PM EDT SAT MAY 30 2015

NOTE: "FAIR" INDICATES FEW OR NO CLOUDS BELOW 12,000 FEET WITH NO
SIGNIFICANT WEATHER AND/OR OBSTRUCTIONS TO VISIBILITY.

NOT ALL STATIONS ARE QUALITY CONTROLLED BY THE NATIONAL
WEATHER SERVICE. USE DATA WITH CAUTION...ESPECIALLY
DEWPOINT OBSERVATIONS.

SCZ027-030-031-034>040-042>050-310000-
...SOUTHEAST SOUTH CAROLINA...

CITY           SKY/WX    TMP DP  RH WIND       PRES   REMARKS
N CHARLESTON   MOSUNNY   79  64  60 SE13      30.11F
WATERFRONT PAR   N/A     81  70  69 E9        30.09F
MOUNT PLEASANT FAIR      79  66  65 E6G16     30.11F
JOHNS ISLAND   CLEAR     79  66  65 E8        30.12S
PINOPOLIS        N/A     84  66  54 SE5       30.04S
MONCKS CORNER  FAIR      79  64  61 SE7       30.11S
SUMMERVILLE    FAIR      81  66  61 SE7       30.11S
BEAUFORT MCAS  MOSUNNY   80  69  69 E13G20    30.10F
BEAUFORT ARPT  FAIR      79  70  73 SE5       30.10S
HILTON HEAD IS MOSUNNY   79  72  78 NE7       30.11F
WALTERBORO     PTCLDY    79  64  61 SE8       30.11S
ALLENDALE      FAIR      81  68  65 SE9       30.08S

...SOUTHERN MIDLANDS AND PEE DEE...

CITY           SKY/WX    TMP DP  RH WIND       PRES   REMARKS
GEORGETOWN     NOT AVBL
KINGSTREE      NOT AVBL
ORANGEBURG     MOSUNNY   81  67  62 SE10      30.10R
BARNWELL       MOCLDY    82  68  61 SE9G17    30.09S
AIKEN          MOCLDY    81  63  54 SE14      30.11R
MANNING        FAIR      79  32  18 S6        30.10S
COLUMBIA       MOSUNNY   88  59  37 E13       30.06F
SUMTER         SUNNY     85  66  52 SE15      30.07F
FLORENCE       SUNNY     85  61  44 S14       30.09S
MYRTLE BEACH   MOSUNNY   81  66  61 SE10      30.15S
N MYRTLE BEACH SUNNY     79  66  64 SE10      30.13S

$$

GAZ063-065-086>088-099>101-113>116-118-119-134>141-150-310000-
...SOUTHEAST GEORGIA...

CITY           SKY/WX    TMP DP  RH WIND       PRES   REMARKS
SAVANNAH ARPT  PTSUNNY   77  68  73 SE13      30.10F
HUNTER AAF     MOSUNNY   79  70  73 E13       30.07F
FORT STEWART   MOSUNNY   80  69  68 E7        30.07S
STATESBORO     MOSUNNY   80  71  74 SE9       30.08S
SYLVANIA       PTCLDY    80  73  79 SE7       30.10S
CLAXTON        CLOUDY    77  72  83 E6        30.09S

...CSRA...CENTRAL AND FAR SOUTHEAST GEORGIA...

CITY           SKY/WX    TMP DP  RH WIND       PRES   REMARKS
THOMSON        SUNNY     86  67  52 NE6       30.10S
AUGUSTA-BUSH   MOSUNNY   85  66  53 S9        30.05F
AUGUSTA-DANIEL SUNNY     86  66  51 SE10      30.07S
SWAINSBORO     FAIR      82  72  69 SE12      30.09R
VIDALIA        SUNNY     81  68  65 SE6       30.07S
EASTMAN        FAIR      86  69  58 SE8       30.07S HX  90
HAZLEHURST     FAIR      83  69  61 E8        30.05S
ALMA           MOSUNNY   83  66  56 E6        30.05F
WAYCROSS       MOSUNNY   81  73  74 SE7       30.05F
JESUP          FAIR      81  73  78 E7        30.08S
BAXLEY         PTSUNNY   82  70  65 E8        30.05F
BRUNSWICK      MOSUNNY   81  70  69 E12       30.08F
SAINT SIMONS   NOT AVBL

$$

SCZ027-028-034-036>038-045-046-048>050-GAZ119-141-310000-
...LAKE AND SUPPLEMENTAL COASTAL OBSERVATIONS...

STATION/POSITION TIME  TEMP    WIND        PRES    WAVE   SWELL
                       AIR SEA DIR/SP/G            HT/PER HT/PER/DIR
                 (UTC) (F)     (DEG/KT/KT) (MB)    (FT/S) (FT/S/D)
UPR LAKE MARION  NOT AVBL
WINYAH BAY       2245   77     110/  8     1019.0F
LAKE MURRAY      2200   88     170/  4/  7 1017.6F
ACE BASIN NERRS  NOT AVBL
FORT PULASKI     2300   78 80   90/ 13/ 17 1019.7F
SAPELO ISLAND    2300   79      90/  7     1019.0S

$$

ANZ835-935-AMZ111-154-330-350-352-354-370-450-454-472-310000-
...C-MAN AND BUOY OBSERVATIONS...

STATION/POSITION TIME  TEMP    WIND        PRES    WAVE   SWELL
                       AIR SEA DIR/SP/G            HT/PER HT/PER/DIR
                 (UTC) (F)     (DEG/KT/KT) (MB)    (FT/S) (FT/S/D)
BUOY 41004       2250   77 80   90/ 10/ 12 1019.3F   4/ 9   3/ 9
BUOY 41008       2250   77 78   80/ 10/ 12 1018.8F   3/ 9   3/100/ 9
FOLLY BEACH CMAN 2300   77     100/ 10/ 12 1020.1F
CAPERS NEARSHORE 2208   77     110/ 12/ 16 1019.9F
FRIPP NEARSHORE  2200   78     100/ 14/ 16 1019.2F


STATION/POSITION TIME  TEMP    WIND        PRES    WAVE   SWELL
                       AIR SEA DIR/SP/G            HT/PER HT/PER/DIR
                 (UTC) (F)     (DEG/KT/KT) (MB)    (FT/S) (FT/S/D)
5E ST. MARYS GA  2221      81                N/A     4/ 8
FRYING PAN BUOY  2250   78 77   90/  8/  8 1020.5F   4/ 9   3/110/ 9
BUOY 41025       2250   77 81  140/ 10/ 14 1020.9F   4/11   3/100/11
CAPE LOOKOUT NC  2300   76     120/  9/ 10 1020.3F
BUOY 41002       2250   75 75   80/ 14/ 16 1019.6R   6/ 9   5/ 80/ 9
BUOY 41010       2220   78 79   70/ 14/ 16 1018.2F
ST AUGUSTINE FL  2300   79 81   90/ 12/ 14 1018.6F


$$



USA.gov is the U.S. government's official web portal to all federal, state and local government web resources and services.